This demonstration page uses our WeatherBlox Daily Observations layout. Learn more.

Left ArrowRight Arrow

Hourly Observations for May 25, 2022

Temp ( °F °C ) Dew Point ( °F °C ) Humidity (%) Winds ( mph kmh ) Pressure ( in mb ) Visibility ( mi km ) Precip ( " mm )
12:15 am 00:15 Cloudy with Drizzle 47 8.5 46 7.5 94 94 N 13 20 29.99 1015 10 16 0.00 0.00
12:35 am 00:35 Cloudy with Rain 47 8.5 46 7.5 94 94 N 14 22 29.99 1015 10 16 0.00 0.00
12:55 am 00:55 Cloudy with Light Rain 47 8.5 46 7.5 94 94 N 12 19 29.98 1015 7 11 0.01 0.25
1:15 am 01:15 Cloudy with Rain 47 8.5 46 7.5 94 94 N 13 20 29.97 1015 7 11 0.00 0.00
1:35 am 01:35 Cloudy 47 8.5 46 7.5 94 94 N 15 24 29.95 1014 7 11 0.00 0.00
1:55 am 01:55 Cloudy 47 8.4 46 7.5 94 94 N 15 24 29.95 1014 7 11 0.00 0.00
2:15 am 02:15 Cloudy with Drizzle 47 8.3 46 7.5 95 95 N 16 26 29.94 1014 7 11 0.00 0.00
2:35 am 02:35 Cloudy with Light Rain 47 8.1 45 7.3 95 95 N 17 28 29.94 1014 5 8 0.01 0.25
2:55 am 02:55 Cloudy with Light Rain 47 8.1 46 7.5 96 96 N 16 26 29.94 1014 5 8 0.01 0.25
3:15 am 03:15 Cloudy with Drizzle 47 8.1 46 7.5 96 96 N 16 26 29.94 1014 5 8 0.00 0.00
3:35 am 03:35 Cloudy 47 8.1 46 7.5 96 96 N 20 31 29.94 1014 7 11 0.00 0.00
3:55 am 03:55 Cloudy 47 8.2 46 7.5 95 95 N 17 28 29.94 1014 10 16 0.00 0.00
4:15 am 04:15 Cloudy with Drizzle 47 8.2 46 7.5 95 95 N 16 26 29.94 1014 5 8 0.00 0.00
4:35 am 04:35 Cloudy 47 8.1 46 7.5 96 96 N 18 30 29.94 1014 7 11 0.00 0.00
4:55 am 04:55 Cloudy 47 8.1 46 7.5 96 96 N 17 28 29.94 1014 7 11 0.00 0.00
5:15 am 05:15 Cloudy 47 8.1 45 7.3 95 95 N 16 26 29.94 1014 10 16 0.00 0.00
5:35 am 05:35 Cloudy 47 8.1 45 7.2 94 94 N 17 28 29.94 1014 10 16 0.00 0.00
5:55 am 05:55 Cloudy 47 8.1 45 7.2 94 94 N 16 26 29.95 1014 10 16 0.00 0.00
6:15 am 06:15 Cloudy 47 8.1 45 7.2 94 94 N 16 26 29.96 1015 10 16 0.00 0.00
6:35 am 06:35 Cloudy 47 8.1 45 7.1 93 93 N 16 26 29.97 1015 10 16 0.00 0.00
6:55 am 06:55 Cloudy 47 8.1 45 7.1 93 93 N 15 24 29.97 1015 10 16 0.00 0.00
7:15 am 07:15 Cloudy 47 8.2 45 7.2 93 93 N 16 26 29.98 1015 10 16 0.00 0.00
7:35 am 07:35 Cloudy 47 8.2 45 7.1 93 93 N 17 28 29.98 1015 10 16 0.00 0.00
7:55 am 07:55 Cloudy 47 8.5 45 7.3 92 92 N 18 30 29.97 1015 10 16 0.00 0.00
8:15 am 08:15 Cloudy 47 8.5 45 7.3 92 92 N 21 33 29.96 1014 10 16 0.00 0.00
8:35 am 08:35 Cloudy 48 8.7 46 7.5 92 92 N 20 31 29.95 1014 10 16 0.00 0.00
8:55 am 08:55 Cloudy 48 8.8 46 7.5 92 92 N 22 35 29.95 1014 10 16 0.00 0.00
9:15 am 09:15 Cloudy 48 8.9 45 7.3 90 90 N 21 33 29.94 1014 10 16 0.00 0.00
9:35 am 09:35 Cloudy 49 9.2 46 7.6 90 90 N 22 35 29.94 1014 10 16 0.00 0.00
9:55 am 09:55 Cloudy 49 9.5 46 7.7 89 89 N 18 30 29.95 1014 10 16 0.00 0.00
10:15 am 10:15 Cloudy 49 9.6 46 7.8 89 89 NNE 17 28 29.94 1014 10 16 0.00 0.00
10:35 am 10:35 Cloudy 50 10.1 46 8 87 87 N 25 41 29.93 1014 10 16 0.00 0.00
10:55 am 10:55 Cloudy 50 10.1 46 8 87 87 N 17 28 29.93 1014 10 16 0.00 0.00
11:15 am 11:15 Cloudy 51 10.5 47 8.4 87 87 N 21 33 29.93 1013 10 16 0.00 0.00
11:35 am 11:35 Cloudy 51 10.7 47 8.3 85 85 N 20 31 29.91 1013 10 16 0.00 0.00
11:55 am 11:55 Cloudy 52 11 47 8.3 84 84 N 23 37 29.92 1013 10 16 0.00 0.00
12:15 pm 12:15 Cloudy 52 11.1 47 8.3 83 83 N 21 33 29.92 1013 10 16 0.00 0.00
12:35 pm 12:35 Cloudy 52 11 47 8.3 84 84 N 20 31 29.93 1014 10 16 0.00 0.00
12:55 pm 12:55 Cloudy 52 11.1 47 8.3 83 83 N 20 31 29.93 1014 10 16 0.00 0.00
1:15 pm 13:15 Cloudy 52 11.3 47 8.3 82 82 N 21 33 29.92 1013 10 16 0.00 0.00
1:35 pm 13:35 Mostly Cloudy 54 12.1 47 8.6 79 79 N 22 35 29.90 1013 10 16 0.00 0.00
1:55 pm 13:55 Cloudy 54 12 47 8.6 80 80 N 24 39 29.90 1013 10 16 0.00 0.00
2:15 pm 14:15 Mostly Cloudy 55 12.5 47 8.5 77 77 N 23 37 29.90 1012 10 16 0.00 0.00
2:35 pm 14:35 Mostly Cloudy 55 12.7 47 8.4 75 75 N 26 43 29.89 1012 10 16 0.00 0.00
2:55 pm 14:55 Mostly Cloudy 55 12.8 47 8.3 74 74 N 22 35 29.88 1012 10 16 0.00 0.00
3:15 pm 15:15 Mostly Cloudy 56 13.2 47 8.6 74 74 N 24 39 29.86 1011 10 16 0.00 0.00
3:35 pm 15:35 Cloudy 56 13.5 47 8.2 71 71 N 22 35 29.86 1011 10 16 0.00 0.00
3:55 pm 15:55 Cloudy 56 13.3 47 8.1 71 71 N 22 35 29.86 1011 10 16 0.00 0.00
4:15 pm 16:15 Cloudy 56 13.5 46 8 70 70 N 21 33 29.86 1011 10 16 0.00 0.00
4:35 pm 16:35 Cloudy 57 13.9 46 7.9 67 67 N 23 37 29.85 1011 10 16 0.00 0.00
4:55 pm 16:55 Partly Cloudy 58 14.3 47 8.2 67 67 NNE 18 30 29.84 1011 10 16 0.00 0.00
5:15 pm 17:15 Sunny 58 14.3 46 8 66 66 N 22 35 29.84 1011 10 16 0.00 0.00
5:35 pm 17:35 Sunny 58 14.2 47 8.1 67 67 NNE 16 26 29.84 1011 10 16 0.00 0.00
5:55 pm 17:55 Sunny 58 14.5 47 8.1 66 66 NNE 16 26 29.83 1010 10 16 0.00 0.00
6:15 pm 18:15 Sunny 57 14 46 8 67 67 N 17 28 29.82 1010 10 16 0.00 0.00
6:35 pm 18:35 Sunny 57 14.1 46 8 67 67 N 17 28 29.81 1010 10 16 0.00 0.00
6:55 pm 18:55 Sunny 57 14 47 8.3 69 69 NNE 14 22 29.81 1010 10 16 0.00 0.00
7:15 pm 19:15 Sunny 59 15 46 7.8 62 62 N 21 33 29.81 1009 10 16 0.00 0.00
7:35 pm 19:35 Sunny 59 15 46 7.8 62 62 N 17 28 29.81 1009 10 16 0.00 0.00
7:55 pm 19:55 Sunny 58 14.7 46 7.9 64 64 N 17 28 29.81 1009 10 16 0.00 0.00
8:15 pm 20:15 Sunny 57 13.7 47 8.1 69 69 N 13 20 29.82 1010 10 16 0.00 0.00
8:35 pm 20:35 Sunny 56 13.1 46 7.9 71 71 NNE 9 15 29.83 1010 10 16 0.00 0.00
8:55 pm 20:55 Sunny 55 12.5 46 7.5 72 72 N 9 15 29.84 1010 10 16 0.00 0.00
9:15 pm 21:15 Clear 51 10.5 46 7.6 82 82 N 7 11 29.86 1011 10 16 0.00 0.00
9:35 pm 21:35 Clear 51 10.7 45 7.2 79 79 N 9 15 29.85 1011 10 16 0.00 0.00
9:55 pm 21:55 Clear 49 9.5 45 7 85 85 NNW 9 15 29.88 1012 10 16 0.00 0.00
10:15 pm 22:15 Clear 50 9.9 44 6.7 81 81 NW 9 15 29.87 1012 10 16 0.00 0.00
10:35 pm 22:35 Clear 48 8.8 43 6.2 84 84 NNW 7 11 29.89 1012 10 16 0.00 0.00
10:55 pm 22:55 Clear 47 8.1 42 5.8 86 86 NNW 7 11 29.91 1013 10 16 0.00 0.00
11:15 pm 23:15 Clear 46 7.7 42 5.7 87 87 NW 8 13 29.90 1013 10 16 0.00 0.00
11:35 pm 23:35 Clear 45 7.4 42 5.5 88 88 NW 7 11 29.92 1013 10 16 0.00 0.00
11:55 pm 23:55 Clear 45 7.3 42 5.5 88 88 NW 8 13 29.92 1013 10 16 0.00 0.00

Powered by AerisWeather